Denison, IA

12:07 PM CST on February 27, 2017 (GMT -0600)
Denison Municipal

Weather History for KDNS - October, 2013

Change the Weather History Date:

Thursday, October 24, 2013

  Actual Average Record
Temperature  
Mean Temperature 37 °F -  
Max Temperature 48 °F 57 °F 75 °F (2004)
Min Temperature 26 °F 38 °F 19 °F (1999)
Degree Days  
Heating Degree Days 28    
Moisture  
Dew Point 28 °F    
Average Humidity 74    
Maximum Humidity 93    
Minimum Humidity 43    
Precipitation  
Precipitation 0.00 in - - ()
Sea Level Pressure  
Sea Level Pressure 30.30 in    
Wind  
Wind Speed 7 mph (NW)    
Max Wind Speed 15 mph    
Max Gust Speed 24 mph    
Visibility 10 miles    
Events      
Averages and records for this station are not official NWS values.
T = Trace of Precipitation, MM = Missing Value Source: NWS Daily Summary

Daily Weather History Graph

Daily Weather History Graph

Search for Another Location

Airport or City:

Trip Planner

Search our weather history database for the weather conditions in past years. The results will help you decide how hot, cold, wet, or windy it might be!

Date:

Astronomy

Oct. 24, 2013 Rise Set
Actual Time 7:44 AM CDT 6:25 PM CDT
Civil Twilight 7:16 AM CDT 6:54 PM CDT
Nautical Twilight 6:43 AM CDT 7:27 PM CDT
Astronomical Twilight 6:11 AM CDT 7:59 PM CDT
Moon 10:49 PM CDT (10/24) 12:48 PM CDT (10/24)
Length of Visible Light 11h 38m
Length of Day
10h 41m
Waning Gibbous, 71% of the Moon is Illuminated
Oct 24
Waning Gibbous
Oct 26
Last Quarter
Nov 3
New
Nov 9
First Quarter
Nov 17
Full

Hourly Weather History & Observations

Time (CDT) Temp. Windchill Dew Point Humidity Pressure Visibility Wind Dir Wind Speed Gust Speed Precip Events Conditions
12:15 AM 33.8 °F 28.6 °F 26.6 °F 75% 30.18 in 10.0 mi NW 5.8 mph - N/A   Scattered Clouds
12:35 AM 33.8 °F 28.6 °F 26.6 °F 75% 30.18 in 10.0 mi NW 5.8 mph - N/A   Clear
12:55 AM 32.0 °F 27.5 °F 26.6 °F 80% 30.18 in 10.0 mi West 4.6 mph - N/A   Clear
1:15 AM 32.0 °F 26.4 °F 28.4 °F 87% 30.19 in 10.0 mi West 5.8 mph - N/A   Partly Cloudy
1:35 AM 30.2 °F 25.4 °F 28.4 °F 93% 30.20 in 10.0 mi NW 4.6 mph - N/A   Mostly Cloudy
1:55 AM 32.0 °F 24.8 °F 28.4 °F 87% 30.20 in 10.0 mi WNW 8.1 mph - N/A   Overcast
2:15 AM 32.0 °F 25.6 °F 28.4 °F 87% 30.21 in 10.0 mi WNW 6.9 mph - N/A   Overcast
2:35 AM 33.8 °F 26.4 °F 28.4 °F 81% 30.21 in 10.0 mi WNW 9.2 mph - N/A   Overcast
2:55 AM 33.8 °F 27.7 °F 28.4 °F 81% 30.21 in 10.0 mi WNW 6.9 mph - N/A   Overcast
3:15 AM 33.8 °F 26.4 °F 28.4 °F 81% 30.22 in 10.0 mi WNW 9.2 mph - N/A   Overcast
3:35 AM 33.8 °F 27.7 °F 28.4 °F 81% 30.22 in 10.0 mi WNW 6.9 mph - N/A   Overcast
3:55 AM 32.0 °F 25.6 °F 28.4 °F 87% 30.22 in 10.0 mi WNW 6.9 mph - N/A   Scattered Clouds
4:15 AM 32.0 °F 24.8 °F 28.4 °F 87% 30.22 in 10.0 mi NW 8.1 mph - N/A   Clear
4:35 AM 32.0 °F 24.2 °F 28.4 °F 87% 30.23 in 10.0 mi NW 9.2 mph - N/A   Clear
4:55 AM 32.0 °F 24.2 °F 28.4 °F 87% 30.24 in 10.0 mi NW 9.2 mph - N/A   Clear
5:15 AM 32.0 °F 24.8 °F 28.4 °F 87% 30.24 in 10.0 mi NW 8.1 mph - N/A   Partly Cloudy
5:35 AM 30.2 °F 23.4 °F 28.4 °F 93% 30.25 in 10.0 mi NW 6.9 mph - N/A   Partly Cloudy
5:55 AM 30.2 °F 21.9 °F 28.4 °F 93% 30.26 in 10.0 mi NW 9.2 mph - N/A   Clear
6:15 AM 30.2 °F 22.6 °F 28.4 °F 93% 30.26 in 10.0 mi NW 8.1 mph - N/A   Clear
6:35 AM 30.2 °F 22.6 °F 28.4 °F 93% 30.27 in 10.0 mi NW 8.1 mph - N/A   Clear
6:55 AM 30.2 °F 22.6 °F 28.4 °F 93% 30.27 in 10.0 mi NW 8.1 mph - N/A   Clear
7:15 AM 30.2 °F 22.6 °F 28.4 °F 93% 30.27 in 10.0 mi WNW 8.1 mph - N/A   Clear
7:35 AM 30.2 °F 22.6 °F 26.6 °F 86% 30.28 in 10.0 mi WNW 8.1 mph - N/A   Clear
7:55 AM 28.4 °F 21.2 °F 26.6 °F 93% 30.29 in 10.0 mi WNW 6.9 mph - N/A   Clear
8:15 AM 28.4 °F 24.6 °F 26.6 °F 93% 30.29 in 10.0 mi West 3.5 mph - N/A   Clear
8:35 AM 30.2 °F 25.4 °F 28.4 °F 93% 30.30 in 10.0 mi WNW 4.6 mph - N/A   Clear
8:55 AM 30.2 °F 24.3 °F 28.4 °F 93% 30.31 in 10.0 mi NW 5.8 mph - N/A   Clear
9:15 AM 32.0 °F 26.4 °F 28.4 °F 87% 30.32 in 10.0 mi WNW 5.8 mph 11.5 mph N/A   Clear
9:35 AM 32.0 °F 26.4 °F 30.2 °F 93% 30.33 in 10.0 mi NW 5.8 mph - N/A   Clear
9:55 AM 33.8 °F 27.0 °F 30.2 °F 87% 30.33 in 10.0 mi NW 8.1 mph - N/A   Clear
10:15 AM 35.6 °F 28.6 °F 30.2 °F 81% 30.34 in 10.0 mi WNW 9.2 mph - N/A   Clear
10:35 AM 35.6 °F 27.5 °F 32.0 °F 87% 30.34 in 10.0 mi WNW 11.5 mph - N/A   Clear
10:55 AM 37.4 °F 30.8 °F 32.0 °F 81% 30.34 in 10.0 mi West 9.2 mph - N/A   Clear
11:15 AM 39.2 °F 32.5 °F 32.0 °F 75% 30.35 in 10.0 mi WNW 10.4 mph 16.1 mph N/A   Clear
11:35 AM 41.0 °F 35.2 °F 32.0 °F 70% 30.35 in - WNW 9.2 mph - N/A   Clear
11:55 AM 41.0 °F 34.3 °F 32.0 °F 70% 30.35 in 10.0 mi WNW 11.5 mph - N/A   Clear
12:15 PM 42.8 °F 36.2 °F 32.0 °F 66% 30.35 in 10.0 mi WNW 12.7 mph - N/A   Clear
12:35 PM 42.8 °F 36.2 °F 30.2 °F 61% 30.35 in 10.0 mi WNW 12.7 mph - N/A   Scattered Clouds
12:55 PM 44.6 °F 38.4 °F 28.4 °F 53% 30.35 in 10.0 mi NW 12.7 mph 20.7 mph N/A   Mostly Cloudy
1:15 PM 44.6 °F 38.1 °F 26.6 °F 49% 30.34 in 10.0 mi NW 13.8 mph 24.2 mph N/A   Scattered Clouds
1:35 PM 44.6 °F 39.2 °F 26.6 °F 49% 30.34 in 10.0 mi NW 10.4 mph 17.3 mph N/A   Scattered Clouds
1:55 PM 44.6 °F 38.1 °F 26.6 °F 49% 30.33 in 10.0 mi NW 13.8 mph 20.7 mph N/A   Mostly Cloudy
2:15 PM 44.6 °F 37.8 °F 26.6 °F 49% 30.33 in 10.0 mi NNW 15.0 mph - N/A   Partly Cloudy
2:35 PM 46.4 °F 40.7 °F 26.6 °F 46% 30.33 in 10.0 mi NW 12.7 mph - N/A   Scattered Clouds
2:55 PM 46.4 °F 40.7 °F 24.8 °F 43% 30.32 in 10.0 mi NNW 12.7 mph - N/A   Mostly Cloudy
3:15 PM 46.4 °F 41.5 °F 24.8 °F 43% 30.32 in 10.0 mi NW 10.4 mph 17.3 mph N/A   Mostly Cloudy
3:35 PM 44.6 °F 39.2 °F 24.8 °F 46% 30.32 in 10.0 mi NW 10.4 mph 17.3 mph N/A   Mostly Cloudy
3:55 PM 48.2 °F - 26.6 °F 43% 30.32 in 10.0 mi NW 13.8 mph - N/A   Mostly Cloudy
4:15 PM 46.4 °F 40.4 °F 24.8 °F 43% 30.32 in 10.0 mi NW 13.8 mph - N/A   Mostly Cloudy
4:35 PM 46.4 °F 41.9 °F 24.8 °F 43% 30.32 in 10.0 mi NW 9.2 mph 15.0 mph N/A   Mostly Cloudy
4:55 PM 46.4 °F 42.4 °F 26.6 °F 46% 30.32 in 10.0 mi NW 8.1 mph - N/A   Scattered Clouds
5:15 PM 46.4 °F 42.4 °F 26.6 °F 46% 30.32 in 10.0 mi NW 8.1 mph 20.7 mph N/A   Mostly Cloudy
5:35 PM 44.6 °F 40.2 °F 26.6 °F 49% 30.32 in 10.0 mi NW 8.1 mph - N/A   Partly Cloudy
5:55 PM 44.6 °F 40.2 °F 24.8 °F 46% 30.32 in 10.0 mi WNW 8.1 mph - N/A   Partly Cloudy
6:15 PM 42.8 °F 38.6 °F 26.6 °F 53% 30.33 in 10.0 mi West 6.9 mph - N/A   Clear
6:35 PM 41.0 °F 38.0 °F 26.6 °F 57% 30.33 in 10.0 mi WNW 4.6 mph - N/A   Clear
6:55 PM 41.0 °F 38.0 °F 26.6 °F 57% 30.33 in 10.0 mi WNW 4.6 mph - N/A   Clear
7:15 PM 37.4 °F - 26.6 °F 65% 30.34 in 10.0 mi Calm Calm - N/A   Clear
7:35 PM 37.4 °F - 26.6 °F 65% 30.34 in 10.0 mi Calm Calm - N/A   Clear
7:55 PM 35.6 °F - 26.6 °F 70% 30.35 in 10.0 mi Calm Calm - N/A   Clear
8:15 PM 33.8 °F - 26.6 °F 75% 30.35 in 10.0 mi Calm Calm - N/A   Clear
8:35 PM 33.8 °F - 26.6 °F 75% 30.35 in 10.0 mi Calm Calm - N/A   Clear
8:55 PM 32.0 °F - 26.6 °F 80% 30.35 in 10.0 mi Calm Calm - N/A   Clear
9:15 PM 30.2 °F 26.7 °F 26.6 °F 86% 30.35 in 10.0 mi ESE 3.5 mph - N/A   Clear
9:35 PM 30.2 °F - 26.6 °F 86% 30.36 in 10.0 mi Calm Calm - N/A   Clear
9:55 PM 28.4 °F 24.6 °F 24.8 °F 86% 30.36 in 10.0 mi ESE 3.5 mph - N/A   Clear
10:15 PM 28.4 °F - 24.8 °F 86% 30.36 in 10.0 mi Calm Calm - N/A   Clear
10:35 PM 28.4 °F - 24.8 °F 86% 30.36 in 10.0 mi Calm Calm - N/A   Clear
10:55 PM 28.4 °F - 24.8 °F 86% 30.36 in 10.0 mi Calm Calm - N/A   Clear
11:15 PM 26.6 °F - 24.8 °F 93% 30.37 in 10.0 mi Calm Calm - N/A   Clear
11:35 PM 28.4 °F - 24.8 °F 86% 30.37 in 10.0 mi Calm Calm - N/A   Clear
11:55 PM 26.6 °F - 24.8 °F 93% 30.37 in 10.0 mi Calm Calm - N/A   Clear